• In Hungary
  • List of Countries
  • For 7 days
  • Water Temperature
  • Satellite Maps
  • Weather Map
  • News
  • Weather Widgets
  • user-avatar
    Login

    Hourly Weather Lahaur

    Today, 22 January, Monday

    Time Temperature Precipitation Wind Pressure Humidity
    00:00 +12°C° 0 mm 1 mps 740 mmHg 31%
    01:00 +11°C° 0 mm 1 mps 740 mmHg 33%
    02:00 +11°C° 0 mm 1 mps 740 mmHg 34%
    03:00 +10°C° 0 mm 1 mps 740 mmHg 36%
    04:00 +10°C° 0 mm 1 mps 740 mmHg 37%
    05:00 +8°C° 0 mm 1 mps 739 mmHg 38%
    06:00 +9°C° 0 mm 1 mps 740 mmHg 38%
    07:00 +9°C° 0 mm 1 mps 740 mmHg 38%
    08:00 +10°C° 0 mm 1 mps 740 mmHg 38%
    09:00 +13°C° 0 mm 1 mps 740 mmHg 32%
    10:00 +16°C° 0 mm 1 mps 740 mmHg 27%
    11:00 +20°C° 0 mm 1 mps 741 mmHg 22%
    12:00 +22°C° 0 mm 1 mps 740 mmHg 20%
    13:00 +23°C° 0 mm 1 mps 740 mmHg 18%
    14:00 +24°C° 0 mm 1 mps 739 mmHg 16%
    15:00 +23°C° 0 mm 1 mps 739 mmHg 19%
    16:00 +21°C° 0 mm 1 mps 738 mmHg 22%
    17:00 +20°C° 0 mm 1 mps 738 mmHg 25%
    18:00 +18°C° 0 mm 1 mps 738 mmHg 28%
    19:00 +16°C° 0 mm 2 mps 738 mmHg 30%
    20:00 +14°C° 0 mm 2 mps 738 mmHg 33%
    21:00 +13°C° 0 mm 2 mps 739 mmHg 36%
    22:00 +13°C° 0 mm 2 mps 739 mmHg 39%
    23:00 +12°C° 0 mm 2 mps 739 mmHg 41%

    Tomorrow, 23 January, Tuesday

    Time Temperature Precipitation Wind Pressure Humidity
    00:00 +10°C° 0 mm 2 mps 739 mmHg 43%
    01:00 +10°C° 0 mm 2 mps 739 mmHg 45%
    02:00 +9°C° 0 mm 2 mps 739 mmHg 47%
    03:00 +9°C° 0 mm 2 mps 739 mmHg 48%
    04:00 +9°C° 0 mm 2 mps 739 mmHg 49%
    05:00 +9°C° 0 mm 2 mps 738 mmHg 50%
    06:00 +9°C° 0 mm 2 mps 739 mmHg 50%
    07:00 +10°C° 0 mm 2 mps 739 mmHg 49%
    08:00 +12°C° 0 mm 2 mps 739 mmHg 48%
    09:00 +14°C° 0 mm 2 mps 740 mmHg 44%
    10:00 +16°C° 0 mm 2 mps 740 mmHg 39%
    11:00 +19°C° 0 mm 2 mps 740 mmHg 34%
    12:00 +18°C° 0 mm 2 mps 740 mmHg 38%
    13:00 +18°C° 0 mm 3 mps 739 mmHg 41%
    14:00 +18°C° 0 mm 3 mps 739 mmHg 45%
    15:00 +17°C° 0.1 mm 3 mps 739 mmHg 52%
    16:00 +16°C° 0.1 mm 2 mps 739 mmHg 60%
    17:00 +15°C° 0.1 mm 2 mps 739 mmHg 67%
    18:00 +14°C° 0 mm 2 mps 739 mmHg 73%
    19:00 +13°C° 0 mm 2 mps 739 mmHg 78%
    20:00 +12°C° 0 mm 2 mps 739 mmHg 84%
    21:00 +12°C° 0 mm 1 mps 740 mmHg 82%
    22:00 +12°C° 0 mm 1 mps 740 mmHg 81%
    23:00 +12°C° 0 mm 1 mps 740 mmHg 80%

    Day after tomorrow, 24 January, Wednesday

    Time Temperature Precipitation Wind Pressure Humidity
    00:00 +12°C° 0 mm 1 mps 740 mmHg 82%
    01:00 +11°C° 0 mm 1 mps 740 mmHg 84%
    02:00 +10°C° 0 mm 1 mps 740 mmHg 87%
    03:00 +10°C° 0 mm 1 mps 740 mmHg 87%
    04:00 +8°C° 0 mm 0 mps 740 mmHg 87%
    05:00 +8°C° 0 mm 0 mps 739 mmHg 87%
    06:00 +9°C° 0 mm 0 mps 740 mmHg 85%
    07:00 +9°C° 0 mm 0 mps 740 mmHg 84%
    08:00 +11°C° 0 mm 1 mps 741 mmHg 82%
    09:00 +13°C° 0 mm 1 mps 741 mmHg 70%
    10:00 +16°C° 0 mm 1 mps 741 mmHg 57%
    11:00 +20°C° 0 mm 1 mps 742 mmHg 45%
    12:00 +20°C° 0 mm 2 mps 741 mmHg 39%
    13:00 +21°C° 0 mm 2 mps 741 mmHg 32%
    14:00 +24°C° 0 mm 2 mps 740 mmHg 26%
    15:00 +21°C° 0 mm 2 mps 740 mmHg 28%
    16:00 +20°C° 0 mm 2 mps 740 mmHg 30%
    17:00 +20°C° 0 mm 1 mps 739 mmHg 32%
    18:00 +18°C° 0 mm 1 mps 740 mmHg 33%
    19:00 +16°C° 0 mm 1 mps 740 mmHg 35%
    20:00 +14°C° 0 mm 1 mps 740 mmHg 37%
    21:00 +13°C° 0 mm 1 mps 740 mmHg 38%
    22:00 +13°C° 0 mm 1 mps 740 mmHg 39%
    23:00 +11°C° 0 mm 0 mps 740 mmHg 39%

    25 January, Thursday

    Time Temperature Precipitation Wind Pressure Humidity
    00:00 +11°C° 0 mm 0 mps 740 mmHg 40%
    01:00 +11°C° 0 mm 1 mps 740 mmHg 40%
    02:00 +11°C° 0 mm 1 mps 740 mmHg 40%
    03:00 +9°C° 0 mm 0 mps 740 mmHg 40%
    04:00 +9°C° 0 mm 0 mps 740 mmHg 40%
    05:00 +9°C° 0 mm 0 mps 739 mmHg 40%
    06:00 +9°C° 0 mm 0 mps 740 mmHg 39%
    07:00 +10°C° 0 mm 0 mps 740 mmHg 39%
    08:00 +10°C° 0 mm 0 mps 740 mmHg 39%
    09:00 +14°C° 0 mm 1 mps 741 mmHg 33%
    10:00 +18°C° 0 mm 1 mps 741 mmHg 28%
    11:00 +20°C° 0 mm 2 mps 741 mmHg 23%
    12:00 +21°C° 0 mm 2 mps 740 mmHg 21%
    13:00 +23°C° 0 mm 2 mps 740 mmHg 19%
    14:00 +24°C° 0 mm 2 mps 739 mmHg 17%
    15:00 +23°C° 0 mm 2 mps 739 mmHg 20%
    16:00 +21°C° 0 mm 2 mps 739 mmHg 22%
    17:00 +20°C° 0 mm 1 mps 738 mmHg 25%
    18:00 +19°C° 0 mm 1 mps 739 mmHg 26%
    19:00 +16°C° 0 mm 1 mps 739 mmHg 27%
    20:00 +14°C° 0 mm 1 mps 740 mmHg 28%
    21:00 +13°C° 0 mm 1 mps 740 mmHg 29%
    22:00 +13°C° 0 mm 1 mps 740 mmHg 30%
    23:00 +12°C° 0 mm 1 mps 740 mmHg 31%

    26 January, Friday

    Time Temperature Precipitation Wind Pressure Humidity
    00:00 +12°C° 0 mm 1 mps 740 mmHg 33%
    01:00 +11°C° 0 mm 1 mps 740 mmHg 34%
    02:00 +10°C° 0 mm 1 mps 740 mmHg 36%
    03:00 +10°C° 0 mm 1 mps 740 mmHg 36%
    04:00 +9°C° 0 mm 1 mps 740 mmHg 37%
    05:00 +9°C° 0 mm 1 mps 740 mmHg 38%
    06:00 +10°C° 0 mm 1 mps 740 mmHg 38%
    07:00 +10°C° 0 mm 1 mps 741 mmHg 37%
    08:00 +11°C° 0 mm 1 mps 741 mmHg 37%
    09:00 +14°C° 0 mm 1 mps 741 mmHg 32%
    10:00 +18°C° 0 mm 1 mps 742 mmHg 27%
    11:00 +21°C° 0 mm 1 mps 742 mmHg 22%
    12:00 +22°C° 0 mm 1 mps 741 mmHg 20%
    13:00 +23°C° 0 mm 1 mps 740 mmHg 18%
    14:00 +24°C° 0 mm 2 mps 740 mmHg 17%
    15:00 +23°C° 0 mm 2 mps 740 mmHg 19%
    16:00 +21°C° 0 mm 1 mps 739 mmHg 21%
    17:00 +20°C° 0 mm 1 mps 739 mmHg 23%
    18:00 +18°C° 0 mm 1 mps 739 mmHg 24%
    19:00 +15°C° 0 mm 1 mps 740 mmHg 25%
    20:00 +13°C° 0 mm 1 mps 740 mmHg 27%
    21:00 +13°C° 0 mm 1 mps 740 mmHg 27%
    22:00 +12°C° 0 mm 1 mps 740 mmHg 28%
    23:00 +12°C° 0 mm 1 mps 740 mmHg 29%

    27 January, Saturday

    Time Temperature Precipitation Wind Pressure Humidity
    00:00 +11°C° 0 mm 1 mps 740 mmHg 30%
    01:00 +10°C° 0 mm 1 mps 740 mmHg 31%
    02:00 +10°C° 0 mm 1 mps 739 mmHg 32%
    03:00 +9°C° 0 mm 1 mps 739 mmHg 33%
    04:00 +8°C° 0 mm 0 mps 739 mmHg 34%
    05:00 +7°C° 0 mm 0 mps 739 mmHg 35%
    06:00 +8°C° 0 mm 0 mps 739 mmHg 35%
    07:00 +9°C° 0 mm 0 mps 740 mmHg 35%
    08:00 +9°C° 0 mm 0 mps 740 mmHg 34%
    09:00 +13°C° 0 mm 1 mps 740 mmHg 29%
    10:00 +18°C° 0 mm 1 mps 741 mmHg 24%
    11:00 +21°C° 0 mm 1 mps 741 mmHg 19%
    12:00 +22°C° 0 mm 1 mps 740 mmHg 17%
    13:00 +23°C° 0 mm 2 mps 740 mmHg 15%
    14:00 +24°C° 0 mm 2 mps 739 mmHg 13%
    15:00 +23°C° 0 mm 2 mps 739 mmHg 16%
    16:00 +21°C° 0 mm 1 mps 739 mmHg 18%
    17:00 +20°C° 0 mm 1 mps 738 mmHg 21%
    18:00 +18°C° 0 mm 1 mps 739 mmHg 21%
    19:00 +15°C° 0 mm 1 mps 739 mmHg 22%
    20:00 +13°C° 0 mm 1 mps 739 mmHg 23%
    21:00 +13°C° 0 mm 1 mps 740 mmHg 24%
    22:00 +12°C° 0 mm 1 mps 740 mmHg 25%
    23:00 +11°C° 0 mm 1 mps 740 mmHg 26%
    Show more